Regional Weather Roundup
Issued by NWS

Home | Current Version | Previous Version | Graphics & Text | Print | Product List | Glossary On
Versions: 1 2 3 4 5 6 7 8 9 10 11 12 13 14 15 16 17 18 19 20 21 22 23 24 25 26 27 28 29 30 31 32 33 34 35 36 37 38 39 40 41 42 43 44 45 46 47 48 49 50
000
ASUS43 KDMX 201506
RWRIA

WEATHER ROUNDUP FOR IOWA
NATIONAL WEATHER SERVICE DES MOINES IA
1000 AM CDT SUN AUG 20 2017

NOTE: "FAIR" INDICATES FEW OR NO CLOUDS BELOW 12,000 FEET WITH NO
SIGNIFICANT WEATHER AND/OR OBSTRUCTIONS TO VISIBILITY.

* - THESE STATIONS ARE NOT NWS STATIONS...THUS NOT UNDER NWS
QUALITY CONTROL.  THEY ALSO DO NOT REPORT WEATHER SUCH
AS PRECIPITATION OR FOG.

IAZ001>003-012>014-020>022-031>034-043>046-201600-
   NORTHWEST IOWA

CITY           SKY/WX    TMP DP  RH WIND       PRES   REMARKS
CARROLL *      MOSUNNY   75  68  78 S9        29.96R
CHEROKEE *     MOSUNNY   74  63  67 CALM      29.98R
DENISON *      SUNNY     75  64  69 SE10G16   29.97R
LE MARS *      SUNNY    102 N/A N/A SE9       29.96R
ORANGE CITY *  SUNNY     75  66  73 S8        29.96R
SHELDON *      SUNNY     75  64  69 S9G15     29.95R
SIOUX CITY     SUNNY     75  66  73 E3        29.96R
SPENCER        PTSUNNY   76  63  64 S9        29.97R
STORM LAKE *   SUNNY     73  64  73 CALM      29.99R
$$

IAZ055>058-069>071-079>083-090>094-201600-
   SOUTHWEST IOWA

CITY           SKY/WX    TMP DP  RH WIND       PRES   REMARKS
ATLANTIC *     CLOUDY    70  66  88 SE5       29.96R
AUDUBON *      CLOUDY    73  66  78 SE6       29.97S
CLARINDA *     PTSUNNY   68  68 100 E6        29.97F FOG
COUNCIL BLFS * CLOUDY    68  68 100 E8        29.96R
CRESTON *      CLOUDY    70  66  88 CALM      29.98F
HARLAN  *      SUNNY     70  68  94 S8        30.00R
LAMONI         CLOUDY    72  65  78 S14       29.94S
RED OAK *      LGT RAIN  68  66  94 S6        29.96R
$$

IAZ047>049-059>061-072>074-084-201600-
   CENTRAL IOWA

CITY           SKY/WX    TMP DP  RH WIND       PRES   REMARKS
AMES           PTSUNNY   75  69  81 CALM      29.98R
ANKENY *       PTSUNNY   75  66  73 E8        29.97R
BOONE *        MOSUNNY   75  66  73 SE12      29.97S
CHARITON *     CLOUDY    73  66  78 S7        29.96F
DES MOINES     PTSUNNY   76  66  71 SE10      29.95S
GRINNELL*      CLOUDY    68  65  90 E8        30.01R
KNOXVILLE *    CLOUDY    72  66  83 S9        29.95F
MARSHALLTOWN   LGT RAIN  69  65  86 SE13      29.97R
NEWTON *       CLOUDY    68  66  94 E10       29.99R
PELLA *        CLOUDY    70  67  89 SE8       29.98F
PERRY *          N/A     76  69  80 SE6       29.97S
$$

IAZ004>006-015-016-023>025-035-036-201600-
   NORTH CENTRAL IOWA

CITY           SKY/WX    TMP DP  RH WIND       PRES   REMARKS
ALGONA *       PTSUNNY   75  66  73 S10G16    29.98S
CLARION *      MOSUNNY   75  68  78 S5        30.00R
ESTHERVILLE    CLOUDY    73  66  78 SW8       29.96R
FORT DODGE *   CLOUDY    75  63  64 SE5       29.99S
MASON CITY     CLOUDY    71  66  84 S7        30.01R
FOREST CITY *    N/A     72  66  83 S8        30.00R
WEBSTER CITY * MOSUNNY   77  66  69 E6        29.97R
IOWA FALLS *     N/A     73  65  76 CALM      30.01R
$$

IAZ007>011-017>019-026>030-037>042-050>054-066-201600-
   NORTHEAST IOWA

CITY           SKY/WX    TMP DP  RH WIND       PRES   REMARKS
CEDAR RAPIDS   LGT RAIN  67  67 100 S3        30.03R
CHARLES CITY * CLOUDY    70  68  94 VRB7      30.01R
CLINTON *      CLOUDY    70  67  90 SW7       30.05R
DECORAH *      CLOUDY    70  64  83 VRB5      30.01R
DUBUQUE        CLOUDY    68  64  87 SW8       30.05R
MONTICELLO *   CLOUDY    70  66  88 CALM      30.03R
OELWEIN *      CLOUDY    68  66  94 S6        30.02S
WATERLOO       CLOUDY    70  64  81 S3        30.00R
$$

IAZ064-065-067-068-078-201600-
   EAST CENTRAL IOWA

CITY           SKY/WX    TMP DP  RH WIND       PRES   REMARKS
DAVENPORT      CLOUDY    71  65  81 W9        30.06R
IOWA CITY      LGT RAIN  69  66  90 CALM      30.04S
MUSCATINE *    CLOUDY    70  66  88 CALM      30.02F
QUAD CITIES    CLOUDY    73  65  75 W6        30.04R
$$

IAZ062-063-075>077-085>089-095>099-201600-
   SOUTHEAST IOWA

CITY           SKY/WX    TMP DP  RH WIND       PRES   REMARKS
BURLINGTON     CLOUDY    73  68  84 NW3       30.02F
FAIRFIELD *    CLOUDY    72  66  83 VRB5      29.98F
FORT MADISON * LGT RAIN  72  66  83 CALM      30.01F
KEOKUK *       CLOUDY    72  68  88 CALM      29.97F
OSKALOOSA *    CLOUDY    69  67  92 SE7       29.98F
OTTUMWA        CLOUDY    72  66  81 S10       29.97F
WASHINGTON *   CLOUDY    70  68  94 SW3       30.01F
$$

ABBREVIATIONS USED IN REMARKS
   TC - TEMPERATURES IN CELSIUS
  WCI - WIND CHILL INDEX
   HX - HEAT INDEX
  VSB - VISIBILITY
$$




USA.gov is the U.S. government's official web portal to all federal, state and local government web resources and services.